Regional Weather Roundup
Issued by NWS

Home | Current Version | Previous Version | Graphics & Text | Print | Product List | Glossary Off
Versions: 1 2 3 4 5 6 7 8 9 10 11 12 13 14 15 16 17 18 19 20 21 22 23 24 25 26 27 28 29 30 31 32 33 34 35 36 37 38 39 40 41 42

000
ASUS43 KDMX 260507
RWRIA

WEATHER ROUNDUP FOR IOWA
NATIONAL WEATHER SERVICE DES MOINES IA
1100 PM CST THU DEC 25 2014

NOTE: "FAIR" INDICATES FEW OR NO CLOUDS BELOW 12,000 FEET WITH NO
SIGNIFICANT WEATHER AND/OR OBSTRUCTIONS TO VISIBILITY.

* - THESE STATIONS ARE NOT NWS STATIONS...THUS NOT UNDER NWS
QUALITY CONTROL.  THEY ALSO DO NOT REPORT WEATHER SUCH
AS PRECIPITATION OR FOG.

IAZ001>003-012>014-020>022-031>034-043>046-260600-
   NORTHWEST IOWA

CITY           SKY/WX    TMP DP  RH WIND       PRES   REMARKS
CARROLL *      PTCLDY    34  32  93 S7        29.73R WCI  28
CHEROKEE *     CLOUDY    32  32 100 N7        29.75S WCI  26
DENISON *      CLEAR     32  30  93 CALM      29.71R
LE MARS *      CLOUDY    34  32  93 N13       29.78R WCI  25
ORANGE CITY *  CLOUDY    34  30  86 NE10      29.77R WCI  26
SHELDON *      CLOUDY    32  32 100 N15       29.77R WCI  22
SIOUX CITY     CLOUDY    35  31  85 N10       29.77R WCI  27
SPENCER        CLOUDY    33  30  88 N14       29.77S WCI  23
STORM LAKE *     N/A     28  28 100 N9        29.74R WCI  20
$$

IAZ055>058-069>071-079>083-090>094-260600-
   SOUTHWEST IOWA

CITY           SKY/WX    TMP DP  RH WIND       PRES   REMARKS
ATLANTIC *     PTCLDY    34  32  93 SW6       29.73R WCI  29
AUDUBON *      CLEAR     30  25  80 CALM      29.74R
CLARINDA *     CLEAR     39  32  75 S7        29.77R WCI  34
COUNCIL BLFS * CLEAR     37  34  87 SE5       29.71R WCI  34
CRESTON *      CLEAR     41  32  70 S13       29.76R
HARLAN  *      CLEAR     32  32 100 CALM      29.76R
LAMONI         MOCLDY    41  31  67 S8        29.79R
RED OAK *      PTCLDY    37  32  81 S6        29.74R WCI  33
SHENANDOAH *   CLEAR     43  32  65 S12       29.74S
$$

IAZ047>049-059>061-072>074-084-260600-
   CENTRAL IOWA

CITY           SKY/WX    TMP DP  RH WIND       PRES   REMARKS
AMES           CLOUDY    36  29  75 CALM      29.77S
ANKENY *       CLEAR     39  32  75 SE8       29.77F WCI  34
CHARITON *     CLOUDY    41  32  70 S10       29.79S
DES MOINES     CLOUDY    42  31  64 S13       29.78R
GRINNELL*      MOCLDY    37  32  81 SE12      29.81F WCI  30
KNOXVILLE *    MOCLDY    41  30  65 SE9       29.79R
MARSHALLTOWN   CLOUDY    37  31  78 SE14      29.79R WCI  28
PELLA *        CLOUDY    40  32  71 SE9       29.82S WCI  34
PERRY *          N/A     36  32  87 SE8       29.75R WCI  29
$$

IAZ004>006-015-016-023>025-035-036-260600-
   NORTH CENTRAL IOWA

CITY           SKY/WX    TMP DP  RH WIND       PRES   REMARKS
ALGONA *       CLOUDY    32  32 100 N7        29.77R WCI  26
CLARION *      CLEAR     36  34  93 SE17      29.76R WCI  25
ESTHERVILLE    CLOUDY    31  30  96 N12       29.77S WCI  22
FORT DODGE *   MOCLDY    36  30  80 SE7       29.75S WCI  30
MASON CITY     PTCLDY    34  30  85 S10       29.79S WCI  26
FOREST CITY *  CLOUDY    34  32  93 SE6       29.77S WCI  29
IOWA FALLS *     N/A     36  32  87 SE9       29.79R WCI  29
$$

IAZ007>011-017>019-026>030-037>042-050>054-066-260600-
   NORTHEAST IOWA

CITY           SKY/WX    TMP DP  RH WIND       PRES   REMARKS
CEDAR RAPIDS   CLEAR     39  32  76 S13       29.85R WCI  31
CHARLES CITY * CLEAR     36  32  87 SE9       29.81S WCI  29
CLINTON *      PTCLDY    37  32  81 S10       29.94F WCI  30
DECORAH *      CLEAR     37  32  81 SE8       29.82S WCI  31
DUBUQUE        PTCLDY    36  32  85 S14       29.88S WCI  27
MONTICELLO *   CLEAR     37  36  93 S13       29.88R WCI  29
OELWEIN *      CLEAR     36  32  87 SE13      29.83S WCI  27
WATERLOO       MOCLDY    38  32  79 S14       29.81S WCI  30
$$

IAZ064-065-067-068-078-260600-
   EAST CENTRAL IOWA

CITY           SKY/WX    TMP DP  RH WIND       PRES   REMARKS
DAVENPORT      PTCLDY    41  32  70 S16       29.92S
IOWA CITY      PTCLDY    37  32  82 SE8       29.89S WCI  31
MT. PLEASANT * MOCLDY    41  32  70 S13       29.90S
MUSCATINE *    CLEAR     41  34  75 S13       29.91S
QUAD CITIES    PTCLDY    42  33  70 S13G22    29.92R
$$

IAZ062-063-075>077-085>089-095>099-260600-
   SOUTHEAST IOWA

CITY           SKY/WX    TMP DP  RH WIND       PRES   REMARKS
BURLINGTON     CLOUDY    43  33  68 S12       29.92R
FAIRFIELD *    CLOUDY    43  32  65 S14       29.87R
FORT MADISON * CLEAR     43  36  75 S10       29.92S
KEOKUK *       CLEAR     43  32  65 S8G16     29.91R
OSKALOOSA *      N/A     39  32  75 S15       29.84S WCI  31
CENTERVILLE *  CLEAR     39  32  75 SE9       29.84R WCI  33
OTTUMWA        MOCLDY    41  30  65 S13       29.84R
WASHINGTON *   CLEAR     39  36  87 S12       29.87S WCI  32
$$

ABBREVIATIONS USED IN REMARKS
   TC - TEMPERATURES IN CELSIUS
  WCI - WIND CHILL INDEX
   HX - HEAT INDEX
  VSB - VISIBILITY
$$



USA.gov is the U.S. government's official web portal to all federal, state and local government web resources and services.